Location: Boca do Mato
(22.9085°S, 43.2930°W)
Time: 22:31:56
(UTC+00:00)

Cosmos 2360 Rocket - Pass Details

Date: 14 July 2020
Orbit: 832 x 846 km, 71.0° (Epoch: 10 August)

Event Time Altitude Azimuth Distance (km) Brightness Sun altitude
Rises 08:43:17 0° 358° (N) 3,381 5.6 -11.7°
Reaches altitude 10° 08:45:49 10° 4° (N) 2,451 4.9 -11.1°
Maximum altitude 08:51:09 46° 76° (ENE) 1,124 3.5 -10.0°
Drops below altitude 10° 08:56:32 10° 147° (SSE) 2,467 4.8 -8.8°
Sets 08:59:04 0° 153° (SSE) 3,406 5.4 -8.2°
